User: anonymous   Login
Location: Bangkok
(13.7500°N, 100.5170°E)
Time: 06:31:01
(UTC+07:00)
Language:

ERBS - Orbit

View from above orbital plane
View from above orbital plane
View from above satellite
View from above satellite

Ground track
Ground track

The orbit data is extracted from the following two-line orbital elements,

1 15354U 84108B   15240.89180996 +.00007075 +00000-0 +20355-3 0  9998
2 15354 057.0105 080.5664 0008699 315.2689 044.7661 15.36887852696465
Epoch (UTC): 28 August 2015 21:24:12
Eccentricity: 0.0008699
inclination: 57.0105°
perigee height: 449 km
apogee height: 461 km
right ascension of ascending node: 80.5664°
argument of perigee: 315.2689°
revolutions per day: 15.36887852
mean anomaly at epoch: 44.7661°
orbit number at epoch: 69646

The dashed part of the orbit path shows where the satellite is in the earth's shadow,  

DLR